FENGYUN 1C DEB, 31899

Orbit data source: Space-Track

FENGYUN 1C DEB, 31899 is space debris in SSO originally from a launch on Mon, 10 May 1999 UTC launched from the Taiyaun Space Center, China (TSC). Fengyun 1C debris stems from the Chinese weather satellite Fengyun-1C, which was intentionally destroyed by a Chinese anti-satellite missile in 2007. This event dramatically increased the amount of space debris, with thousands of trackable fragments posing hazards to satellites and human spaceflight. The Fengyun 1C debris cloud has become a focal point in discussions about space sustainability and the need for international regulations to prevent the creation of new debris.

Loading next visibility...
Identifier
31899, 1999-025CLA
Orbit
SSO
Country
Flag of CNCN / PRC
Related business
Manufacturer
Unknown
Mission
Spacecraft
Bus & Motor
Unknown
Mass
Unknown
Launch date (UTC)
1999-05-10 (27 years ago)
Launch vehicle
Unknown
Launch site
Taiyaun Space Center, China (TSC)
Object type
Payload
Rocket body
Debris
Shape & HBR
Unknown shape, 0.1 m
Radar Cross Section
Small (<0.1 m²)

Expand to show TLE details & history
Last TLE update: 4 days ago

TLE from 4 days ago
0 FENGYUN 1C DEB
1 31899U 99025CLA 25349.91791518  .00001238  00000-0  10397-2 0  9995
2 31899 102.0836  53.7231 0182686 150.0114 211.1643 13.83525889676083
Epoch: 2025-12-15T22:01Z
TLE epoch observation values (Epoch: 2025-12-15T22:01:47.871Z)
Latitude
-0.00011°
Longitude
-1.53593°
Altitude
1,069.386 km
Speed
7.26 km/s
True Right ascension
03h 34m 53s
True Declination
0° 00' 00"
Sunlit
Object was in full shadow at epoch
Visualization orbit readout
Latitude
Unknown
Longitude
Unknown
Altitude
Unknown
Speed
Unknown
Apparent Right ascension
Unknown
Apparent Declination
Unknown
Sunlit
N/A
Visualization observer readout
Local Sidereal Time
22:33:06
Azimuth
Unknown
Elevation
Unknown
Doppler factor
Unknown
Orbital elements
Apogee altitude
1,082.655 km
Perigee altitude
814.949 km
Semi-major axis
7,326.939 km
Eccentricity
0.01827
Inclination
102.0836°
RAAN
53.7231°
Arg. of periapsis
150.0114°
True anomaly
210.1018°
Mean anomaly
211.1643°
Eccentric anomaly
210.63099°
Mean motion
3.46066 °/min
Orbital period
104.03 mins
BSTAR
0.0010397
Loading maneuver chart data...
Computing Atmospheric mass density...

Documentation

Showing up to 5 results
|